Regional Weather Roundup
Issued by NWS Sterling, VA

Home | Current Version | Previous Version | Text Only | Print | Product List | Glossary On
Versions: 1 2 3 4 5 6 7 8 9 10 11 12 13 14 15 16 17 18 19 20 21 22 23 24 25 26
000
ASUS41 KLWX 272111
RWRLWX

REGIONAL WEATHER ROUNDUP
NATIONAL WEATHER SERVICE BALTIMORE MD/WASHINGTON DC
500 PM EDT THU JUL 27 2017

Note: "FAIR" indicates few or no clouds below 12,000 feet
with no significant weather and/or obstructions to visibility.
 TC=TEMPERATURE CELSIUS

 * =Non NWS site. Station does not report precipitation (e.g. rain,
    snow, etc.), thunder, or fog.

DCZ001-MDZ009-015-VAZ040>042-051-053>054-272200-
WASHINGTON METRO

CITY           SKY/WX    TMP DP  RH WIND       PRES   REMARKS
WASHINGTON NAT CLOUDY    85  75  72 S8        29.88F HX  93
DULLES         PTSUNNY   85  70  60 VRB5      29.88F
ANDREWS AFB    CLOUDY    83  73  73 S8        29.88F
FT BELVOIR     CLOUDY    85  74  69 S5        29.88S HX  91
QUANTICO       CLOUDY    85  76  74 S9        29.89F HX  94
COLLEGE PARK*  PTSUNNY   84  71  65 S6        29.88S
LEESBURG*      PTSUNNY   88  73  62 S3        29.90S HX  96
MANASSAS*      CLOUDY    86  71  60 W6        29.88F HX  91
GAITHERSBURG*  PTSUNNY   85  70  60 SW3       29.91F

$$

MDZ006>007-011-014-272200-
BALTIMORE METRO

CITY           SKY/WX    TMP DP  RH WIND       PRES   REMARKS
BWI AIRPORT    PTSUNNY   86  71  60 W5        29.88F HX  91
MD SCIENCE CTR   N/A     87  71  58 MISG      29.87F HX  93
MARTIN STATE   PTSUNNY   84  79  84 SE9       29.89F HX  96
ANNAPOLIS      CLOUDY    83  77  82 SW7       29.88F HX  92
FORT MEADE*    CLOUDY    82  72  69 SW3       29.90F

$$

MDZ012-015-019>023-272200-
MARYLAND EASTERN SHORE

CITY           SKY/WX    TMP DP  RH WIND       PRES   REMARKS
OCEAN CITY     CLOUDY    76  70  82 SW14      29.92F
SALISBURY      CLOUDY    81  72  74 S3        29.91F
BAY BRIDGE AP* PTSUNNY   84  73  70 S7        29.88F HX  91
CAMBRIDGE*     PTSUNNY   82  73  74 CALM      29.90F
EASTON*        CLOUDY    84  72  65 S6        29.93F

$$

MDZ017>025-272200-
SOUTHERN MARYLAND

CITY           SKY/WX    TMP DP  RH WIND       PRES   REMARKS
PATUXENT RIVER CLOUDY    83  74  74 S7        29.89F
ST INIGOES     MOSUNNY   84  73  69 S3        29.88F HX  90
LEONARDTOWN*   CLOUDY    82  72  69 S3        29.91S

$$

MDZ003>005-272200-
NORTH CENTRAL MARYLAND

CITY           SKY/WX    TMP DP  RH WIND       PRES   REMARKS
FREDERICK*     PTSUNNY   88  70  55 CALM      29.91F HX  92
HAGERSTOWN APT MOSUNNY   85  67  54 SW6       29.89F
WESTMINSTER*   SUNNY     88  70  55 CALM      29.91F HX  92

$$

MDZ501>502-272200-
WESTERN MARYLAND

CITY           SKY/WX    TMP DP  RH WIND       PRES   REMARKS
OAKLAND*       CLOUDY    70  66  88 NW3       29.99F
CUMBERLAND*    CLOUDY    86  70  58 CALM      29.92F HX  90

$$

VAZ025>031-272200-
SHENANDOAH VALLEY

CITY           SKY/WX    TMP DP  RH WIND       PRES   REMARKS
WINCHESTER*    CLOUDY    82  68  61 CALM      29.89F
FRONT ROYAL*   CLOUDY    84  68  58 CALM      29.88F
LURAY*         CLOUDY    84  70  61 S7        29.90F
NEW MARKET*    CLOUDY    83  68  60 SW6       29.89S
STAUNTON*      LGT RAIN  80  68  67 SW9       29.96S
WAYNESBORO*    CLOUDY    77  72  84 SW5       29.97S

$$

WVZ021-048>050-054>055-272200-
EASTERN WEST VIRGINIA PANHANDLE

CITY           SKY/WX    TMP DP  RH WIND       PRES   REMARKS
MARTINSBURG    MOSUNNY   84  69  60 E3        29.88F
PETERSBURG*    CLOUDY    86  70  58 W9        29.89F HX  91

$$

VAZ036>039-050-272200-
CENTRAL FOOTHILLS

CITY           SKY/WX    TMP DP  RH WIND       PRES   REMARKS
CHARLOTTESVILL LGT RAIN  83  73  72 SW6       29.91S
CULPEPER*      CLOUDY    86  73  65 SW6       29.89F HX  92
ORANGE*        CLOUDY    82  72  69 CALM      29.90S
GORDONSVILLE*  CLOUDY    83  74  73 SW8       29.90S HX  90
WARRENTON*     CLOUDY    86  69  56 SW5       29.89S HX  90

$$

VAZ055>057-272200-
NORTH AND CENTRAL PIEDMONT

CITY           SKY/WX    TMP DP  RH WIND       PRES   REMARKS
FREDERICKSBRG* CLOUDY    84  76  75 S6        29.88S HX  93
STAFFORD*      CLOUDY    83  74  75 SW5       29.93S HX  90

$$

NCZ024-NYZ072-PAZ021-071-VAZ022-071-272200-
OTHER REGIONAL OBSERVATIONS

CITY           SKY/WX    TMP DP  RH WIND       PRES   REMARKS
NEW YORK CITY  CLOUDY    74  69  85 S3        29.94F
PHILADELPHIA   CLOUDY    81  71  71 SE3       29.90F
PITTSBURGH     CLOUDY    81  67  62 SW5       29.90F
ROANOKE        CLOUDY    78  69  73 SW5       30.00F
RICHMOND       CLOUDY    88  70  55 W14       29.89F HX  93
RALEIGH        CLOUDY    89  70  53 W8        29.95S HX  94

$$

ANZ530>537-272200-
MARINE OBSERVATIONS

STATION/POSITION TIME  TEMP    WIND        PRES
                       AIR SEA DIR/SP/G
                 (UTC) (F)     (DEG/KT/KT) (MB)
THOMAS PT LIGHT  2100   80 81  170/  9/ 10   N/A
BALT KEY BRIDGE  2048   82     170/  7/  9 1011.4F
COVE POINT       2048   82     200/  6/  8 1012.7F
LEWISETTA        2048   84 82  160/  3/  4 1011.9F
SOLOMONS ISLAND  2042   83 83  210/  6/  8   N/A
PINEY POINT      2042          190/  3/  4   N/A

$$





USA.gov is the U.S. government's official web portal to all federal, state and local government web resources and services.